Hourly Data Report for July 29, 2021

FLIN FLON
MANITOBA
Current Station Operator: ECCC - MSC

54°41'00.000" N
101°41'00.000" W
303.90 m
5050919
71954
WFO

Download Data

Hourly Data (July 2021)
Hourly Data Report for July 29, 2021
TIME
LST
Temp Definition
°C
Dew Point Definition
°C
Rel Hum Definition
%
Precip. Amount Definition
mm

Wind Dir Definition
10's deg

Wind Spd Definition
km/h
Visibility Definition
km
Stn Press Definition
kPa
Hmdx Definition


Wind Chill Definition


Weather Definition


00:00 12.8 9.9 82 0.0 0 1   98.48     LegendNANA
01:00 14.2 10.4 78 0.0 21 1   98.45     LegendNANA
02:00 15.3 10.2 72 0.0 36 6   98.59     LegendNANA
03:00 13.9 11.7 86 0.4 22 11   98.47     LegendNANA
04:00 14.0 12.6 91 0.0 36 6   98.52     LegendNANA
05:00 14.9 11.8 82 0.0 10 6   98.51     LegendNANA
06:00 14.9 11.8 82 0.0 14 7   98.44     LegendNANA
07:00 16.7 12.3 75 0.0 14 7   98.44     LegendNANA
08:00 18.5 12.9 70 0.0 18 13   98.38     LegendNANA
09:00 19.7 11.8 60 0.0 19 18   98.33     LegendNANA
10:00 21.1 12.6 59 0.0 19 15   98.32     LegendNANA
11:00 22.2 13.3 57 0.0 17 15   98.26 25   LegendNANA
12:00 23.2 12.9 52 0.0 18 13   98.22 26   LegendNANA
13:00 23.9 12.6 49 0.0 17 12   98.17 26   LegendNANA
14:00 25.4 11.7 42 0.0 18 11   98.11 28   LegendNANA
15:00 24.7 12.1 45 0.0 15 9   98.10 27   LegendNANA
16:00 23.8 15.0 58 0.0 24 3   98.06 28   LegendNANA
17:00 26.0 11.8 41 0.0 29 6   98.03 28   LegendNANA
18:00 25.7 12.4 44 0.0 29 5   98.02 28   LegendNANA
19:00 24.1 13.9 53 0.0 17 2   98.00 27   LegendNANA
20:00 22.5 14.4 60 0.0 20 2   97.95 26   LegendNANA
21:00 21.0 15.2 69 0.0 23 3   97.93 25   LegendNANA
22:00 19.7 15.3 76 0.0   0   97.89     LegendNANA
23:00 19.9 15.2 75 0.0 20 6   97.94     LegendNANA

Notes on Data Quality.

Legend

  • E = Estimated
  • M = Missing
  • NA = Not Available*
  • [empty] = Indicates an unobserved value
Date modified: